Location: ????????
(55.6333°N, 37.7000°E)
Time: 02:18:36
(UTC+00:00)

Resurs 1-4 Rocket - Pass Details

Date: 19 May 2025
Orbit: 797 x 813 km, 98.8° (Epoch: 13 June)

Event Time Altitude Azimuth Distance (km) Brightness Sun altitude
Rises 23:13:02 0° 20° (NNE) 3,324 7.5 -11.0°
Reaches altitude 10° 23:15:34 10° 29° (NNE) 2,387 6.2 -10.9°
Maximum altitude 23:20:25 37° 96° (E) 1,240 3.3 -10.6°
Drops below altitude 10° 23:25:15 10° 163° (SSE) 2,368 4.1 -10.2°
Enters shadow 23:26:29 - 168° (SSE) 2,822 4.5 -10.2°
